GFSNW_prec_precacc_162.txt.gz
Total_Precipitation_Accumulation
0.74 0.70 0.73 0.85 1.00 1.31 1.80 2.07 1.57 0.68 0.94 1.86 1.45 0.58 0.10 0.03 0.01 0.00 0.04 0.23 0.43 0.52 0.56 0.52 1.07 0.61 0.33 0.04 0.17 0.23 0.07 0.31 0.11 0.04 0.03 0.03 0.03 0.05 0.20 0.77 0.76 1.08 1.65 1.91
0.94 0.84 0.90 1.03 1.29 1.66 2.08 2.87 1.88 1.63 1.44 1.47 0.66 0.23 0.09 0.05 0.03 0.03 0.04 0.10 0.44 0.63 0.68 0.82 0.74 0.67 0.20 0.01 0.02 0.08 0.15 0.26 0.28 0.27 0.19 0.38 0.21 0.13 0.21 0.46 0.90 1.52 1.64 2.04
1.16 1.03 1.04 1.23 1.49 1.91 2.62 3.57 2.65 3.20 3.20 1.05 0.32 0.31 0.23 0.17 0.03 0.13 0.10 0.17 0.47 0.56 0.53 0.45 0.59 0.62 0.19 0.06 0.01 0.02 0.13 0.33 0.47 0.61 0.65 0.77 0.63 0.53 0.42 0.92 1.47 1.06 0.88 0.89
1.35 1.27 1.16 1.28 1.76 2.30 3.75 4.90 2.26 1.18 1.75 1.11 0.45 0.45 0.58 0.47 0.37 0.20 0.18 0.28 0.26 0.29 0.45 0.29 0.29 0.39 0.27 0.17 0.06 0.09 0.23 0.80 0.57 0.53 0.63 0.47 0.68 1.14 1.18 0.90 0.76 0.86 0.92 0.61
1.55 1.43 1.35 1.29 1.73 3.19 5.76 5.07 1.22 0.58 0.37 0.24 0.43 0.63 0.64 0.36 0.19 0.20 0.19 0.17 0.10 0.15 0.22 0.23 0.16 0.22 0.37 0.33 0.16 0.27 0.24 0.74 0.86 0.69 0.62 0.40 0.60 0.94 0.65 0.63 0.97 0.87 0.53 0.73
1.67 1.83 1.65 1.54 1.76 3.94 7.44 4.32 0.89 0.93 0.68 0.31 0.59 0.55 0.29 0.23 0.22 0.26 0.14 0.13 0.23 0.20 0.12 0.18 0.22 0.18 0.24 0.21 0.22 0.29 0.35 0.48 0.58 0.48 0.27 0.22 0.64 0.85 0.50 0.30 0.27 0.26 0.19 0.40
1.78 1.78 1.88 1.98 2.07 3.05 4.22 2.89 1.00 1.55 1.40 0.65 0.31 0.13 0.17 0.18 0.26 0.28 0.20 0.27 0.32 0.21 0.18 0.34 0.45 0.36 0.21 0.20 0.18 0.28 0.45 0.44 0.66 0.55 0.49 0.94 0.72 0.28 0.15 0.04 0.06 0.07 0.06 0.15
1.88 1.67 1.72 2.17 2.21 2.18 2.53 2.08 1.56 1.72 1.37 0.39 0.25 0.22 0.19 0.18 0.24 0.37 0.24 0.23 0.27 0.31 0.37 0.71 0.69 0.56 0.44 0.18 0.22 0.23 0.24 0.44 0.79 0.77 0.47 0.49 0.27 0.09 0.05 0.10 0.12 0.08 0.09 0.13
2.06 1.83 1.68 1.95 2.26 2.19 2.47 1.99 2.05 2.39 2.05 0.71 0.17 0.25 0.31 0.41 0.43 0.42 0.19 0.26 0.21 0.31 0.57 0.83 0.86 0.57 0.37 0.25 0.25 0.22 0.41 0.46 0.82 0.92 0.63 0.44 0.20 0.06 0.03 0.04 0.19 0.08 0.05 0.06
1.81 1.99 1.79 1.54 1.96 2.37 2.65 2.25 1.88 3.41 3.16 0.75 0.30 0.34 0.27 0.27 0.42 0.57 0.37 0.42 0.43 0.41 0.72 0.77 0.43 0.31 0.17 0.33 0.27 0.27 0.36 0.69 0.91 0.84 0.70 0.22 0.05 0.09 0.09 0.30 0.45 0.11 0.08 0.06
1.44 1.66 1.76 1.63 1.72 2.32 3.17 2.56 1.58 2.49 2.97 1.06 0.51 0.41 0.46 0.29 0.34 0.57 0.53 0.88 1.02 0.97 0.78 0.45 0.28 0.19 0.13 0.32 0.31 0.25 0.24 0.39 0.48 0.71 0.80 0.39 0.12 0.27 0.38 0.40 0.19 0.09 0.11 0.10
1.34 1.24 1.47 1.82 1.78 2.28 3.32 3.30 1.71 1.99 2.81 1.76 0.76 0.39 0.34 0.29 0.26 0.52 0.71 0.84 0.59 0.60 0.77 0.51 0.40 0.30 0.19 0.19 0.55 0.29 0.58 0.31 0.31 0.29 0.35 0.38 0.34 0.44 0.36 0.20 0.23 0.24 0.17 0.12
1.23 1.17 1.34 1.83 2.05 2.34 3.35 3.16 1.95 3.42 3.78 1.97 1.05 0.84 0.35 0.26 0.18 0.35 0.77 0.50 0.55 0.76 0.80 0.88 0.68 0.49 0.23 0.28 0.32 0.43 0.67 0.69 0.81 0.93 0.77 0.43 0.51 0.48 0.28 0.28 0.33 0.27 0.17 0.18
1.26 1.19 1.46 1.92 2.27 2.49 3.26 3.07 2.21 3.19 2.97 2.37 1.21 0.64 0.54 0.34 0.20 0.17 0.28 0.35 0.38 0.60 0.79 0.90 0.82 0.45 0.26 0.38 0.34 0.33 0.45 0.66 0.78 1.24 0.90 0.66 0.60 1.07 0.60 0.32 0.22 0.14 0.07 0.05
1.34 1.27 1.72 2.21 2.52 2.64 3.17 2.95 2.24 2.10 2.37 2.31 1.28 0.56 0.46 0.57 0.45 0.29 0.29 0.39 0.59 0.93 1.39 1.07 0.42 0.26 0.35 0.34 0.59 0.42 0.17 0.44 0.92 1.11 1.22 1.10 1.00 0.92 0.81 0.59 0.39 0.21 0.12 0.08
1.40 1.42 1.96 2.08 2.39 3.36 4.70 6.89 4.11 1.96 2.17 2.72 1.91 1.03 0.43 0.56 0.63 0.70 0.47 0.53 0.86 1.25 1.46 1.08 0.47 0.33 0.66 0.58 0.66 0.54 0.55 0.35 0.36 0.62 0.77 1.08 1.00 0.64 0.36 0.27 0.19 0.09 0.05 0.04
1.55 1.72 1.71 2.04 2.65 3.47 3.51 3.40 2.40 1.37 2.11 3.17 2.00 1.30 0.80 0.70 1.05 0.98 0.91 0.79 1.30 1.37 1.53 1.15 0.60 0.42 0.85 0.89 0.55 0.33 0.25 0.16 0.10 0.13 0.24 0.29 0.20 0.16 0.04 0.02 0.02 0.02 0.02 0.01
1.84 2.15 2.15 2.60 3.23 3.79 2.41 1.13 0.94 1.24 2.29 2.18 2.08 1.46 1.49 0.84 1.47 1.24 0.94 1.08 1.40 1.43 1.17 0.79 0.52 0.64 1.20 1.20 0.30 0.06 0.02 0.02 0.04 0.06 0.06 0.05 0.04 0.02 0.02 0.02 0.02 0.02 0.02 0.06
2.12 2.56 3.46 4.87 4.95 4.11 2.61 1.44 1.67 1.68 2.29 2.00 1.14 1.08 1.79 1.08 1.41 1.51 1.13 1.07 1.34 1.05 1.07 0.72 0.73 0.84 1.32 0.83 0.27 0.10 0.03 0.02 0.03 0.02 0.04 0.08 0.10 0.11 0.11 0.11 0.11 0.16 0.28 0.32
2.59 4.10 5.13 5.82 3.76 2.39 2.73 4.38 5.01 3.92 1.93 1.07 0.75 0.61 1.28 1.40 1.31 1.47 1.73 1.33 0.91 0.92 0.68 0.80 1.23 0.98 0.47 0.14 0.07 0.13 0.16 0.16 0.11 0.07 0.09 0.12 0.14 0.15 0.21 0.28 0.36 0.46 0.44 0.35
4.54 5.09 4.14 3.78 3.01 2.56 3.52 4.15 3.57 2.44 1.37 0.42 0.34 0.31 0.57 0.99 1.64 1.29 1.12 1.60 1.46 0.87 0.70 0.82 1.10 0.81 0.50 0.17 0.07 0.06 0.08 0.11 0.13 0.15 0.15 0.16 0.20 0.30 0.43 0.43 0.34 0.28 0.30 0.36
2.93 2.68 3.27 3.55 3.46 3.05 2.50 2.32 1.50 0.93 0.53 0.28 0.28 0.32 0.50 1.05 2.01 1.91 1.30 1.33 1.42 1.38 1.19 1.17 0.86 0.53 0.28 0.28 0.31 0.28 0.22 0.18 0.16 0.19 0.25 0.32 0.40 0.41 0.29 0.24 0.27 0.33 0.38 0.46
2.54 2.85 3.14 2.85 2.76 2.48 1.81 1.19 0.67 0.67 0.61 0.45 0.32 0.45 0.75 0.84 1.74 1.99 1.58 1.43 1.49 1.28 1.34 1.13 0.78 0.49 0.36 0.40 0.36 0.31 0.27 0.28 0.33 0.40 0.37 0.28 0.27 0.29 0.32 0.43 0.58 0.59 0.65 0.82
2.65 2.72 2.48 2.04 1.64 1.11 0.92 0.55 0.42 0.49 0.58 0.53 0.41 0.43 0.58 0.80 1.43 2.33 1.82 1.52 0.91 1.09 0.95 0.66 0.70 0.85 0.90 0.66 0.56 0.53 0.60 0.61 0.60 0.64 0.61 0.64 0.66 0.74 0.79 0.79 0.84 0.67 0.76 0.95
1.52 1.21 1.22 0.97 1.05 0.85 0.73 0.60 0.60 0.70 0.99 0.96 1.00 1.09 0.97 1.06 1.47 1.40 1.11 0.84 0.68 0.55 0.75 0.89 0.99 0.90 0.78 0.61 0.55 0.54 0.59 0.63 0.66 0.71 0.64 0.71 0.73 0.62 0.75 0.81 0.73 0.55 0.57 0.59
0.68 0.90 1.29 1.04 0.90 0.93 0.83 0.80 0.85 0.94 1.19 1.21 1.15 1.17 1.11 1.30 1.05 0.78 0.78 0.61 0.72 0.87 0.75 0.86 0.82 0.78 0.80 0.86 0.83 0.82 0.84 0.76 0.69 0.65 0.60 0.57 0.54 0.47 0.52 0.54 0.49 0.50 0.40 0.41
0.69 1.12 1.32 1.24 1.02 1.08 1.12 1.01 0.95 0.89 0.89 0.81 0.52 0.53 0.74 0.72 0.60 0.64 0.66 0.94 0.96 0.92 0.92 0.86 0.84 0.87 0.87 0.85 0.84 0.86 0.76 0.62 0.56 0.54 0.50 0.47 0.45 0.33 0.23 0.31 0.45 0.35 0.35 0.31

GFSNW_prec_precacc_168.txt.gz
Total_Precipitation_Accumulation
0.76 0.72 0.74 0.85 1.00 1.36 1.92 2.17 1.64 0.71 0.98 2.08 1.76 0.62 0.10 0.03 0.01 0.00 0.04 0.23 0.44 0.53 0.57 0.55 1.09 0.61 0.33 0.04 0.18 0.23 0.08 0.35 0.11 0.04 0.03 0.03 0.03 0.05 0.20 0.78 0.77 1.08 1.66 1.92
0.95 0.85 0.91 1.03 1.29 1.73 2.18 2.97 1.95 1.68 1.51 1.59 0.73 0.26 0.09 0.05 0.03 0.03 0.04 0.10 0.45 0.64 0.68 0.84 0.74 0.67 0.20 0.01 0.03 0.10 0.19 0.41 0.36 0.28 0.19 0.38 0.21 0.13 0.21 0.46 0.90 1.53 1.68 2.06
1.16 1.03 1.04 1.23 1.49 1.93 2.76 3.67 2.75 3.36 3.59 1.22 0.34 0.32 0.24 0.17 0.03 0.13 0.10 0.17 0.47 0.56 0.54 0.47 0.61 0.62 0.20 0.07 0.02 0.05 0.26 0.57 0.59 0.66 0.66 0.78 0.64 0.53 0.43 0.93 1.53 1.07 0.88 0.89
1.35 1.27 1.17 1.28 1.76 2.33 3.90 5.10 2.35 1.23 1.92 1.41 0.61 0.50 0.60 0.47 0.37 0.21 0.19 0.29 0.26 0.29 0.46 0.30 0.29 0.39 0.27 0.17 0.06 0.10 0.31 0.98 0.64 0.59 0.66 0.48 0.72 1.16 1.18 0.90 0.78 0.90 0.94 0.61
1.55 1.43 1.36 1.31 1.73 3.22 5.81 5.26 1.37 0.65 0.40 0.26 0.55 0.90 0.82 0.37 0.19 0.21 0.20 0.18 0.11 0.19 0.25 0.24 0.17 0.24 0.39 0.34 0.17 0.28 0.31 0.87 0.92 0.73 0.63 0.41 0.63 0.94 0.65 0.63 0.97 0.87 0.53 0.73
1.67 1.84 1.66 1.55 1.78 3.96 7.46 4.36 0.97 1.12 0.81 0.38 0.69 0.64 0.38 0.27 0.26 0.36 0.16 0.14 0.26 0.23 0.12 0.20 0.23 0.19 0.25 0.22 0.23 0.30 0.38 0.57 0.67 0.56 0.27 0.25 0.74 0.87 0.50 0.30 0.28 0.26 0.19 0.40
1.80 1.79 1.88 1.98 2.08 3.06 4.22 2.90 1.05 1.64 1.58 0.84 0.49 0.26 0.25 0.25 0.38 0.39 0.23 0.31 0.39 0.24 0.20 0.36 0.46 0.36 0.21 0.21 0.18 0.29 0.46 0.45 0.76 0.64 0.53 1.10 0.74 0.28 0.15 0.04 0.06 0.07 0.06 0.15
1.94 1.71 1.73 2.18 2.21 2.19 2.54 2.08 1.58 1.74 1.40 0.42 0.30 0.27 0.24 0.20 0.26 0.45 0.29 0.25 0.30 0.36 0.46 0.89 0.76 0.58 0.45 0.18 0.22 0.23 0.24 0.47 0.87 0.87 0.54 0.54 0.27 0.09 0.05 0.10 0.12 0.08 0.09 0.13
2.19 1.89 1.71 1.96 2.27 2.22 2.49 2.00 2.06 2.40 2.05 0.71 0.17 0.27 0.33 0.44 0.45 0.43 0.20 0.26 0.22 0.32 0.61 0.93 0.95 0.60 0.40 0.27 0.26 0.23 0.42 0.50 0.99 1.06 0.77 0.49 0.20 0.06 0.03 0.04 0.19 0.08 0.05 0.06
2.02 2.29 1.91 1.58 1.98 2.40 2.68 2.27 1.89 3.42 3.16 0.75 0.30 0.34 0.28 0.31 0.50 0.73 0.52 0.53 0.52 0.50 0.84 0.89 0.50 0.36 0.21 0.37 0.29 0.29 0.39 0.76 1.08 1.01 0.94 0.30 0.05 0.09 0.09 0.31 0.45 0.11 0.08 0.06
1.49 1.77 2.16 1.87 1.78 2.35 3.20 2.58 1.59 2.50 2.98 1.06 0.51 0.41 0.46 0.29 0.39 0.70 0.71 0.99 1.15 1.26 1.13 0.72 0.45 0.30 0.18 0.34 0.32 0.25 0.25 0.45 0.53 0.81 0.97 0.47 0.13 0.28 0.40 0.41 0.19 0.09 0.11 0.10
1.40 1.30 1.53 2.00 1.95 2.32 3.36 3.31 1.73 2.03 2.84 1.77 0.76 0.39 0.34 0.29 0.26 0.52 0.72 0.88 0.66 0.86 1.15 0.81 0.68 0.59 0.41 0.27 0.58 0.30 0.59 0.32 0.35 0.33 0.42 0.41 0.34 0.45 0.37 0.20 0.24 0.24 0.17 0.12
1.30 1.26 1.41 1.88 2.11 2.41 3.40 3.17 1.97 3.45 3.82 1.99 1.05 0.84 0.35 0.26 0.18 0.35 0.77 0.50 0.55 0.84 0.96 1.07 0.84 0.65 0.36 0.36 0.34 0.44 0.67 0.70 0.83 0.94 0.77 0.45 0.54 0.51 0.30 0.29 0.33 0.27 0.17 0.18
1.35 1.33 1.60 2.03 2.35 2.53 3.33 3.08 2.21 3.20 3.00 2.40 1.21 0.64 0.54 0.34 0.20 0.17 0.28 0.35 0.39 0.64 0.96 1.26 1.17 0.63 0.34 0.43 0.37 0.33 0.46 0.66 0.78 1.24 0.91 0.67 0.61 1.09 0.62 0.32 0.22 0.14 0.07 0.05
1.44 1.41 1.89 2.38 2.64 2.73 3.30 2.99 2.25 2.11 2.40 2.34 1.30 0.56 0.46 0.57 0.45 0.29 0.29 0.39 0.59 0.95 1.47 1.24 0.60 0.36 0.47 0.39 0.59 0.42 0.17 0.44 0.92 1.11 1.22 1.11 1.01 0.92 0.81 0.59 0.39 0.22 0.14 0.11
1.49 1.52 2.09 2.24 2.52 3.51 4.77 6.91 4.12 1.97 2.21 2.83 1.94 1.03 0.43 0.56 0.63 0.70 0.47 0.54 0.86 1.27 1.49 1.13 0.53 0.36 0.69 0.60 0.66 0.54 0.55 0.35 0.36 0.62 0.77 1.08 1.00 0.64 0.36 0.27 0.19 0.10 0.08 0.06
1.63 1.78 1.79 2.11 2.74 3.52 3.51 3.42 2.42 1.37 2.16 3.31 2.08 1.30 0.81 0.71 1.06 1.00 0.93 0.81 1.34 1.40 1.60 1.22 0.63 0.44 0.88 0.91 0.55 0.33 0.25 0.16 0.10 0.13 0.24 0.29 0.20 0.16 0.04 0.02 0.02 0.02 0.02 0.01
1.89 2.20 2.19 2.70 3.33 3.84 2.42 1.15 1.00 1.37 2.45 2.30 2.16 1.47 1.50 0.91 1.53 1.33 1.07 1.21 1.50 1.54 1.26 0.89 0.58 0.67 1.22 1.21 0.30 0.06 0.02 0.02 0.04 0.06 0.06 0.05 0.04 0.02 0.02 0.02 0.02 0.02 0.02 0.06
2.19 2.64 3.52 4.92 4.98 4.12 2.61 1.44 1.69 1.75 2.66 2.38 1.24 1.08 1.82 1.32 1.69 1.87 1.41 1.32 1.56 1.16 1.12 0.74 0.77 0.90 1.35 0.83 0.27 0.10 0.03 0.02 0.03 0.02 0.04 0.08 0.10 0.11 0.11 0.11 0.11 0.16 0.28 0.32
2.62 4.10 5.13 5.82 3.76 2.40 2.75 4.41 5.04 3.96 2.00 1.20 0.81 0.68 1.37 1.66 1.66 1.93 2.10 1.56 1.08 1.01 0.74 0.82 1.25 0.99 0.47 0.14 0.07 0.13 0.16 0.16 0.11 0.07 0.09 0.12 0.14 0.15 0.21 0.28 0.36 0.46 0.44 0.35
4.54 5.09 4.14 3.79 3.02 2.58 3.53 4.19 3.61 2.45 1.40 0.44 0.34 0.37 0.71 1.32 2.06 1.60 1.41 1.76 1.54 0.91 0.72 0.84 1.11 0.82 0.50 0.17 0.07 0.06 0.08 0.11 0.13 0.15 0.15 0.16 0.20 0.30 0.43 0.44 0.34 0.28 0.30 0.36
2.93 2.68 3.27 3.58 3.58 3.09 2.51 2.35 1.56 0.95 0.53 0.28 0.28 0.33 0.51 1.15 2.25 2.20 1.42 1.40 1.43 1.39 1.19 1.18 0.86 0.53 0.28 0.28 0.31 0.28 0.22 0.18 0.16 0.19 0.25 0.32 0.41 0.41 0.29 0.24 0.27 0.33 0.38 0.46
2.54 2.87 3.19 2.95 2.93 2.64 1.84 1.21 0.68 0.68 0.61 0.45 0.33 0.47 0.78 0.87 1.79 2.07 1.60 1.43 1.49 1.28 1.34 1.13 0.78 0.49 0.36 0.40 0.36 0.31 0.27 0.28 0.33 0.40 0.37 0.28 0.27 0.29 0.32 0.43 0.58 0.59 0.65 0.82
2.67 2.80 2.59 2.14 1.71 1.14 0.92 0.55 0.42 0.49 0.58 0.53 0.42 0.47 0.60 0.81 1.44 2.33 1.82 1.52 0.91 1.09 0.95 0.66 0.70 0.85 0.90 0.66 0.56 0.53 0.60 0.61 0.60 0.64 0.61 0.65 0.67 0.74 0.80 0.79 0.84 0.67 0.76 0.95
1.58 1.24 1.25 0.99 1.07 0.87 0.73 0.60 0.60 0.70 0.99 0.96 1.06 1.13 0.98 1.06 1.47 1.40 1.11 0.85 0.69 0.55 0.75 0.89 0.99 0.90 0.78 0.61 0.55 0.54 0.60 0.64 0.67 0.72 0.65 0.72 0.74 0.62 0.75 0.81 0.73 0.55 0.57 0.59
0.71 0.91 1.29 1.04 0.90 0.93 0.83 0.80 0.85 0.94 1.20 1.26 1.20 1.19 1.11 1.30 1.05 0.78 0.78 0.61 0.72 0.87 0.75 0.86 0.82 0.78 0.80 0.86 0.83 0.82 0.84 0.76 0.69 0.65 0.60 0.57 0.54 0.47 0.52 0.54 0.49 0.50 0.40 0.41
0.69 1.12 1.32 1.24 1.02 1.08 1.12 1.01 0.95 0.89 0.91 0.87 0.53 0.53 0.74 0.72 0.60 0.64 0.66 0.94 0.96 0.92 0.92 0.86 0.84 0.87 0.87 0.85 0.84 0.86 0.76 0.62 0.56 0.54 0.50 0.47 0.45 0.33 0.23 0.31 0.45 0.35 0.35 0.34

GFSNW_prec_precacc_174.txt.gz
Total_Precipitation_Accumulation
0.77 0.72 0.75 0.85 1.00 1.37 2.03 2.43 2.10 0.91 1.19 2.75 2.52 0.97 0.12 0.03 0.01 0.02 0.05 0.24 0.48 0.58 0.62 0.59 1.13 0.66 0.45 0.08 0.18 0.23 0.08 0.36 0.12 0.04 0.03 0.03 0.03 0.05 0.20 0.84 0.84 1.13 1.71 1.95
0.96 0.87 0.93 1.04 1.30 1.74 2.32 3.13 2.10 1.80 1.75 2.16 1.20 0.45 0.14 0.08 0.04 0.05 0.07 0.11 0.45 0.65 0.73 0.96 0.78 0.69 0.26 0.08 0.07 0.13 0.23 0.46 0.38 0.28 0.19 0.39 0.22 0.13 0.23 0.48 0.95 1.64 1.78 2.10
1.19 1.06 1.07 1.25 1.51 1.96 2.87 3.82 2.92 3.45 3.86 1.47 0.45 0.43 0.39 0.33 0.13 0.16 0.14 0.19 0.47 0.56 0.55 0.50 0.66 0.63 0.21 0.07 0.03 0.08 0.30 0.63 0.61 0.67 0.67 0.86 0.74 0.56 0.45 1.02 1.70 1.15 0.93 0.92
1.37 1.29 1.19 1.31 1.78 2.37 4.00 5.25 2.49 1.34 2.05 1.57 0.73 0.57 0.72 0.57 0.44 0.27 0.22 0.33 0.27 0.29 0.47 0.31 0.31 0.39 0.27 0.17 0.06 0.11 0.38 1.09 0.65 0.60 0.66 0.48 0.72 1.16 1.18 0.93 0.83 0.98 0.98 0.62
1.58 1.46 1.38 1.32 1.76 3.27 5.91 5.36 1.45 0.74 0.49 0.32 0.66 1.05 0.98 0.46 0.26 0.34 0.33 0.23 0.12 0.21 0.28 0.25 0.17 0.25 0.39 0.34 0.17 0.28 0.32 0.90 0.93 0.74 0.63 0.41 0.63 0.95 0.65 0.63 0.97 0.87 0.54 0.74
1.70 1.87 1.69 1.58 1.80 3.97 7.48 4.43 1.08 1.26 0.88 0.45 0.82 0.83 0.51 0.37 0.35 0.46 0.30 0.33 0.48 0.35 0.18 0.26 0.27 0.21 0.26 0.22 0.23 0.32 0.44 0.65 0.73 0.61 0.27 0.27 0.81 0.88 0.50 0.30 0.28 0.26 0.20 0.41
1.83 1.82 1.92 2.01 2.10 3.07 4.23 2.97 1.20 1.84 1.76 0.98 0.58 0.34 0.35 0.42 0.53 0.58 0.34 0.40 0.51 0.37 0.31 0.38 0.46 0.36 0.21 0.21 0.18 0.30 0.49 0.50 0.83 0.69 0.55 1.16 0.75 0.28 0.15 0.04 0.06 0.07 0.06 0.15
1.99 1.76 1.78 2.20 2.22 2.20 2.54 2.11 1.72 1.95 1.50 0.50 0.47 0.50 0.39 0.29 0.40 0.61 0.38 0.28 0.32 0.44 0.54 0.96 0.84 0.63 0.49 0.18 0.22 0.23 0.25 0.52 0.96 0.97 0.60 0.56 0.27 0.09 0.05 0.10 0.13 0.08 0.09 0.13
2.26 1.95 1.77 2.01 2.29 2.22 2.51 2.02 2.11 2.49 2.14 0.74 0.22 0.42 0.45 0.49 0.49 0.50 0.27 0.35 0.25 0.38 0.66 1.01 1.03 0.66 0.47 0.32 0.30 0.25 0.45 0.55 1.11 1.15 0.85 0.51 0.20 0.06 0.06 0.13 0.29 0.13 0.09 0.08
2.08 2.35 1.97 1.64 2.02 2.42 2.70 2.30 1.94 3.47 3.19 0.75 0.31 0.35 0.30 0.31 0.51 0.74 0.56 0.58 0.55 0.60 0.98 1.02 0.54 0.39 0.23 0.41 0.32 0.36 0.53 0.92 1.26 1.20 1.20 0.47 0.09 0.10 0.11 0.38 0.56 0.16 0.11 0.06
1.51 1.82 2.26 2.05 1.85 2.38 3.22 2.61 1.64 2.55 3.02 1.07 0.51 0.41 0.46 0.30 0.40 0.71 0.74 1.02 1.19 1.35 1.42 1.06 0.69 0.46 0.30 0.40 0.34 0.28 0.30 0.58 0.66 0.95 1.10 0.56 0.20 0.37 0.50 0.48 0.21 0.11 0.12 0.10
1.41 1.33 1.57 2.21 2.29 2.44 3.42 3.35 1.78 2.08 2.91 1.81 0.77 0.39 0.34 0.29 0.27 0.53 0.73 0.89 0.69 0.91 1.22 0.96 0.78 0.64 0.46 0.36 0.71 0.38 0.64 0.36 0.43 0.47 0.61 0.58 0.48 0.49 0.37 0.21 0.24 0.24 0.17 0.13
1.32 1.29 1.46 1.91 2.35 2.70 3.54 3.24 2.06 3.54 3.88 2.00 1.05 0.84 0.35 0.26 0.18 0.35 0.77 0.51 0.56 0.86 0.99 1.11 0.87 0.69 0.43 0.45 0.45 0.55 0.78 0.82 1.12 1.06 0.78 0.46 0.58 0.56 0.31 0.29 0.34 0.28 0.18 0.19
1.38 1.36 1.66 2.05 2.39 2.64 3.49 3.23 2.29 3.26 3.04 2.42 1.22 0.64 0.54 0.34 0.20 0.17 0.28 0.35 0.39 0.65 0.99 1.33 1.21 0.66 0.36 0.44 0.43 0.45 0.55 0.75 0.85 1.30 0.92 0.68 0.62 1.09 0.62 0.34 0.23 0.15 0.07 0.05
1.47 1.46 1.95 2.42 2.69 2.79 3.39 3.09 2.32 2.18 2.48 2.40 1.31 0.56 0.46 0.57 0.45 0.29 0.29 0.39 0.60 0.97 1.50 1.27 0.61 0.37 0.48 0.41 0.62 0.44 0.18 0.47 1.09 1.23 1.25 1.14 1.03 0.92 0.81 0.59 0.40 0.22 0.14 0.12
1.55 1.59 2.18 2.33 2.63 3.72 5.02 7.24 4.23 1.99 2.25 2.89 1.95 1.03 0.43 0.56 0.63 0.70 0.48 0.54 0.89 1.31 1.54 1.17 0.54 0.36 0.70 0.60 0.67 0.54 0.55 0.36 0.36 0.62 0.77 1.08 1.00 0.64 0.36 0.27 0.19 0.10 0.08 0.07
1.70 1.86 1.94 2.33 2.97 3.76 3.71 3.51 2.45 1.38 2.21 3.37 2.11 1.31 0.81 0.71 1.06 1.00 0.94 0.81 1.37 1.46 1.68 1.25 0.65 0.45 0.91 0.92 0.55 0.33 0.25 0.16 0.10 0.13 0.24 0.29 0.20 0.16 0.04 0.02 0.02 0.02 0.02 0.02
1.95 2.26 2.34 2.95 3.60 4.11 2.61 1.18 1.01 1.39 2.49 2.35 2.19 1.48 1.51 0.93 1.58 1.41 1.12 1.27 1.58 1.61 1.32 0.92 0.61 0.69 1.27 1.25 0.30 0.06 0.02 0.02 0.04 0.06 0.06 0.05 0.04 0.02 0.02 0.02 0.02 0.02 0.02 0.06
2.24 2.68 3.68 5.28 5.30 4.36 2.74 1.47 1.72 1.82 2.73 2.49 1.30 1.10 1.86 1.37 1.79 1.98 1.56 1.47 1.70 1.22 1.17 0.76 0.81 0.94 1.37 0.83 0.27 0.10 0.03 0.02 0.03 0.02 0.04 0.08 0.10 0.11 0.11 0.11 0.11 0.16 0.28 0.32
2.64 4.14 5.18 5.95 3.90 2.44 2.77 4.43 5.07 4.01 2.04 1.23 0.82 0.70 1.41 1.73 1.83 2.14 2.26 1.76 1.24 1.10 0.77 0.85 1.28 0.99 0.47 0.14 0.07 0.13 0.16 0.16 0.11 0.07 0.09 0.12 0.14 0.15 0.21 0.28 0.36 0.46 0.44 0.35
4.54 5.11 4.17 3.82 3.04 2.63 3.60 4.22 3.64 2.48 1.43 0.45 0.34 0.37 0.71 1.34 2.10 1.68 1.56 2.00 1.79 1.09 0.80 0.88 1.15 0.82 0.50 0.17 0.07 0.06 0.08 0.11 0.13 0.15 0.15 0.16 0.20 0.30 0.43 0.44 0.34 0.28 0.30 0.36
2.94 2.69 3.28 3.61 3.63 3.14 2.54 2.38 1.59 0.98 0.54 0.30 0.30 0.33 0.52 1.16 2.28 2.31 1.55 1.54 1.56 1.55 1.31 1.27 0.91 0.54 0.28 0.28 0.31 0.28 0.22 0.18 0.16 0.19 0.25 0.32 0.41 0.41 0.29 0.24 0.27 0.33 0.38 0.46
2.55 2.88 3.20 2.97 2.94 2.66 1.85 1.22 0.69 0.69 0.62 0.48 0.38 0.63 0.95 0.96 1.86 2.34 1.78 1.60 1.57 1.32 1.46 1.22 0.80 0.51 0.36 0.40 0.36 0.31 0.27 0.28 0.33 0.40 0.37 0.28 0.27 0.29 0.32 0.43 0.58 0.59 0.66 0.83
2.67 2.80 2.59 2.14 1.74 1.17 0.96 0.59 0.47 0.53 0.62 0.56 0.45 0.62 0.88 1.12 1.68 2.52 2.03 1.61 0.93 1.15 0.99 0.68 0.71 0.85 0.90 0.66 0.56 0.53 0.60 0.61 0.60 0.64 0.61 0.65 0.67 0.74 0.80 0.79 0.84 0.67 0.76 0.95
1.59 1.28 1.30 1.03 1.09 0.93 0.79 0.67 0.66 0.72 1.02 1.00 1.12 1.26 1.19 1.39 1.66 1.43 1.17 0.85 0.70 0.56 0.77 0.94 1.01 0.91 0.78 0.61 0.55 0.54 0.60 0.64 0.67 0.72 0.65 0.72 0.74 0.62 0.75 0.81 0.73 0.56 0.57 0.59
0.73 0.94 1.31 1.06 0.94 1.02 0.94 0.86 0.90 1.05 1.26 1.30 1.29 1.41 1.31 1.41 1.10 0.79 0.78 0.61 0.73 0.88 0.78 0.88 0.82 0.78 0.80 0.86 0.83 0.82 0.84 0.76 0.69 0.65 0.60 0.57 0.54 0.47 0.52 0.54 0.49 0.50 0.40 0.41
0.71 1.13 1.35 1.26 1.04 1.10 1.15 1.03 0.98 0.94 0.99 1.03 0.65 0.64 0.79 0.74 0.63 0.66 0.67 0.95 0.99 0.93 0.92 0.86 0.84 0.87 0.87 0.85 0.84 0.86 0.76 0.62 0.56 0.54 0.50 0.47 0.45 0.33 0.23 0.31 0.45 0.35 0.35 0.34

GFSNW_prec_precacc_180.txt.gz
Total_Precipitation_Accumulation
0.84 0.81 0.82 0.91 1.05 1.42 2.11 2.50 2.26 0.94 1.27 3.23 3.37 1.57 0.30 0.04 0.01 0.03 0.08 0.26 0.50 0.60 0.63 0.60 1.16 0.70 0.47 0.10 0.19 0.24 0.10 0.39 0.13 0.05 0.04 0.06 0.09 0.14 0.28 1.02 1.03 1.29 1.80 1.99
1.00 0.92 1.02 1.13 1.38 1.83 2.42 3.25 2.14 1.81 1.86 2.47 1.63 0.79 0.33 0.17 0.10 0.08 0.19 0.18 0.47 0.66 0.76 0.99 0.84 0.83 0.44 0.21 0.21 0.26 0.28 0.52 0.40 0.28 0.20 0.40 0.31 0.28 0.39 0.72 1.23 1.82 1.93 2.17
1.22 1.09 1.11 1.30 1.56 2.04 3.04 4.04 3.07 3.49 3.96 1.61 0.56 0.60 0.62 0.56 0.32 0.27 0.28 0.39 0.55 0.63 0.62 0.53 0.68 0.67 0.28 0.13 0.12 0.23 0.46 0.76 0.64 0.68 0.67 0.86 0.74 0.57 0.46 1.07 1.81 1.26 1.04 0.96
1.39 1.32 1.22 1.35 1.84 2.47 4.28 5.62 2.67 1.37 2.11 1.65 0.83 0.68 0.97 0.74 0.59 0.43 0.31 0.60 0.46 0.42 0.64 0.38 0.33 0.39 0.28 0.19 0.08 0.12 0.41 1.15 0.66 0.60 0.66 0.48 0.72 1.16 1.18 0.95 0.85 1.03 1.00 0.62
1.60 1.47 1.41 1.36 1.80 3.35 6.15 5.65 1.57 0.78 0.50 0.34 0.81 1.39 1.31 0.65 0.43 0.65 0.57 0.45 0.21 0.29 0.49 0.46 0.35 0.35 0.44 0.37 0.18 0.29 0.33 0.92 0.95 0.76 0.63 0.41 0.64 0.95 0.65 0.63 0.97 0.87 0.54 0.74
1.72 1.89 1.73 1.62 1.85 4.02 7.53 4.46 1.10 1.38 0.96 0.46 0.89 0.93 0.74 0.62 0.62 0.67 0.51 0.55 0.75 0.65 0.45 0.43 0.39 0.33 0.39 0.33 0.30 0.35 0.46 0.67 0.77 0.64 0.27 0.30 0.90 0.88 0.50 0.30 0.28 0.26 0.20 0.41
1.87 1.86 1.96 2.04 2.14 3.08 4.23 2.97 1.23 1.93 1.82 0.99 0.61 0.39 0.45 0.52 0.67 0.89 0.53 0.52 0.65 0.47 0.40 0.48 0.56 0.47 0.32 0.33 0.25 0.35 0.52 0.52 0.88 0.73 0.57 1.22 0.77 0.28 0.15 0.04 0.06 0.07 0.06 0.15
2.03 1.80 1.82 2.24 2.26 2.21 2.54 2.11 1.77 2.07 1.62 0.55 0.51 0.55 0.47 0.38 0.50 0.71 0.50 0.46 0.53 0.59 0.67 1.01 0.90 0.69 0.54 0.24 0.28 0.27 0.28 0.56 0.99 0.98 0.61 0.57 0.27 0.09 0.05 0.13 0.13 0.08 0.09 0.13
2.32 1.99 1.81 2.05 2.33 2.25 2.52 2.02 2.16 2.63 2.32 0.87 0.31 0.59 0.63 0.60 0.56 0.65 0.51 0.45 0.33 0.53 0.81 1.08 1.04 0.69 0.50 0.33 0.31 0.26 0.46 0.58 1.20 1.18 0.88 0.52 0.20 0.06 0.06 0.14 0.31 0.14 0.09 0.09
2.13 2.40 2.01 1.68 2.05 2.45 2.72 2.30 1.96 3.54 3.34 0.81 0.39 0.40 0.38 0.43 0.53 0.77 0.58 0.59 0.56 0.62 1.01 1.08 0.61 0.40 0.24 0.43 0.34 0.38 0.56 0.97 1.36 1.27 1.33 0.53 0.09 0.11 0.12 0.40 0.58 0.17 0.12 0.07
1.53 1.87 2.31 2.09 1.89 2.42 3.27 2.61 1.65 2.59 3.07 1.08 0.54 0.44 0.47 0.30 0.40 0.71 0.74 1.02 1.20 1.36 1.43 1.07 0.71 0.51 0.32 0.40 0.35 0.30 0.34 0.68 0.78 1.11 1.33 0.69 0.22 0.40 0.55 0.54 0.24 0.12 0.13 0.10
1.43 1.35 1.62 2.26 2.33 2.47 3.45 3.36 1.79 2.12 2.96 1.83 0.80 0.41 0.35 0.30 0.27 0.53 0.73 0.90 0.70 0.92 1.24 0.97 0.79 0.64 0.46 0.37 0.71 0.39 0.66 0.38 0.45 0.51 0.69 0.66 0.53 0.52 0.39 0.21 0.24 0.24 0.17 0.13
1.34 1.31 1.49 1.98 2.40 2.79 3.60 3.25 2.08 3.60 3.91 2.01 1.05 0.84 0.35 0.26 0.18 0.35 0.77 0.51 0.57 0.87 1.01 1.13 0.88 0.70 0.43 0.45 0.46 0.56 0.78 0.82 1.13 1.14 0.83 0.60 0.71 0.60 0.33 0.30 0.34 0.28 0.18 0.19
1.40 1.38 1.67 2.10 2.46 2.78 3.63 3.27 2.30 3.31 3.07 2.43 1.22 0.64 0.54 0.34 0.20 0.17 0.28 0.35 0.39 0.65 1.00 1.34 1.22 0.66 0.36 0.44 0.43 0.46 0.55 0.75 0.85 1.34 0.97 0.81 0.90 1.20 0.65 0.36 0.26 0.15 0.07 0.05
1.50 1.50 1.99 2.46 2.76 2.92 3.64 3.24 2.37 2.22 2.56 2.46 1.32 0.56 0.46 0.57 0.45 0.29 0.29 0.39 0.60 0.97 1.50 1.27 0.62 0.37 0.48 0.41 0.62 0.44 0.18 0.47 1.14 1.41 1.43 1.34 1.20 1.09 1.06 0.68 0.42 0.22 0.14 0.12
1.62 1.65 2.26 2.38 2.68 3.78 5.16 7.62 4.33 2.02 2.35 2.95 1.95 1.03 0.43 0.56 0.63 0.70 0.48 0.54 0.89 1.31 1.54 1.18 0.54 0.36 0.71 0.61 0.67 0.54 0.55 0.36 0.36 0.63 0.78 1.14 1.18 0.71 0.37 0.28 0.19 0.10 0.08 0.07
1.77 1.90 2.01 2.38 3.00 3.76 3.71 3.56 2.47 1.38 2.27 3.45 2.11 1.31 0.81 0.71 1.06 1.00 0.94 0.82 1.38 1.49 1.69 1.26 0.65 0.46 0.95 0.94 0.55 0.33 0.25 0.16 0.10 0.13 0.24 0.29 0.21 0.17 0.04 0.02 0.02 0.02 0.02 0.02
2.01 2.33 2.46 3.07 3.63 4.13 2.63 1.18 1.01 1.41 2.53 2.37 2.20 1.48 1.51 0.93 1.59 1.41 1.13 1.30 1.61 1.63 1.33 0.93 0.62 0.70 1.29 1.25 0.30 0.06 0.02 0.02 0.04 0.06 0.06 0.05 0.04 0.02 0.02 0.02 0.02 0.02 0.02 0.06
2.30 2.77 3.77 5.36 5.34 4.46 2.79 1.48 1.76 1.89 2.76 2.50 1.31 1.10 1.86 1.37 1.80 2.02 1.60 1.51 1.72 1.23 1.18 0.76 0.82 0.95 1.38 0.83 0.27 0.10 0.03 0.02 0.03 0.02 0.04 0.08 0.10 0.11 0.11 0.11 0.11 0.16 0.28 0.32
2.65 4.15 5.25 6.10 4.02 2.53 2.81 4.49 5.17 4.10 2.06 1.24 0.82 0.70 1.41 1.74 1.86 2.15 2.27 1.79 1.26 1.13 0.78 0.85 1.29 0.99 0.47 0.14 0.07 0.13 0.16 0.16 0.11 0.07 0.09 0.12 0.14 0.15 0.21 0.28 0.36 0.46 0.44 0.35
4.56 5.12 4.22 3.84 3.05 2.66 3.64 4.24 3.65 2.49 1.43 0.45 0.34 0.37 0.71 1.35 2.11 1.69 1.60 2.06 1.87 1.17 0.81 0.90 1.16 0.82 0.50 0.17 0.07 0.06 0.08 0.11 0.13 0.16 0.15 0.16 0.20 0.30 0.43 0.44 0.34 0.28 0.30 0.36
2.95 2.69 3.28 3.62 3.65 3.18 2.54 2.38 1.60 0.99 0.54 0.30 0.30 0.35 0.54 1.18 2.29 2.31 1.56 1.55 1.57 1.56 1.46 1.46 0.95 0.56 0.31 0.30 0.32 0.28 0.22 0.18 0.17 0.20 0.26 0.32 0.41 0.41 0.29 0.24 0.27 0.33 0.38 0.46
2.55 2.88 3.20 2.97 2.94 2.66 1.85 1.22 0.69 0.69 0.62 0.48 0.39 0.65 0.99 0.99 1.88 2.35 1.78 1.61 1.59 1.34 1.58 1.48 0.92 0.56 0.39 0.41 0.39 0.31 0.27 0.28 0.34 0.41 0.37 0.28 0.27 0.29 0.32 0.43 0.58 0.59 0.66 0.83
2.67 2.80 2.59 2.14 1.74 1.17 0.96 0.60 0.47 0.53 0.63 0.57 0.51 0.74 1.03 1.22 1.89 2.57 2.12 1.72 0.99 1.21 1.04 0.84 0.84 0.87 0.94 0.68 0.62 0.54 0.60 0.62 0.61 0.65 0.62 0.65 0.67 0.74 0.80 0.79 0.84 0.67 0.76 0.95
1.59 1.28 1.30 1.03 1.09 0.93 0.80 0.68 0.67 0.73 1.04 1.03 1.20 1.32 1.28 1.51 1.85 1.52 1.24 0.93 0.77 0.62 0.84 1.43 1.07 0.93 0.82 0.64 0.58 0.56 0.61 0.65 0.68 0.73 0.67 0.72 0.74 0.62 0.75 0.81 0.73 0.56 0.58 0.60
0.73 0.94 1.31 1.07 0.96 1.03 0.97 0.87 0.91 1.08 1.34 1.41 1.40 1.54 1.53 1.62 1.20 0.91 0.83 0.65 0.78 0.98 0.80 0.89 0.82 0.78 0.80 0.86 0.84 0.82 0.84 0.76 0.69 0.65 0.60 0.57 0.54 0.47 0.52 0.54 0.49 0.50 0.40 0.41
0.71 1.13 1.36 1.28 1.05 1.10 1.16 1.04 0.99 0.96 1.09 1.23 0.85 1.05 1.05 0.88 0.76 0.76 0.69 1.00 1.21 0.99 0.92 0.86 0.84 0.87 0.87 0.85 0.84 0.86 0.76 0.62 0.56 0.54 0.50 0.47 0.45 0.33 0.23 0.31 0.45 0.35 0.35 0.34

GFSNW_prec_precacc_186.txt.gz
Total_Precipitation_Accumulation
0.90 0.88 0.93 1.05 1.25 1.75 2.47 2.89 2.66 0.98 1.31 3.31 3.77 2.10 0.69 0.28 0.13 0.10 0.30 0.51 0.64 0.67 0.69 0.75 1.27 0.80 0.52 0.11 0.21 0.33 0.21 0.57 0.23 0.07 0.05 0.08 0.11 0.17 0.33 1.10 1.12 1.40 1.90 2.07
1.01 0.94 1.05 1.25 1.61 2.26 2.89 3.72 2.37 1.87 2.02 2.66 1.70 0.84 0.46 0.40 0.35 0.26 0.61 0.62 0.75 0.81 0.87 1.16 0.97 0.93 0.52 0.27 0.29 0.37 0.45 0.81 0.69 0.47 0.41 0.62 0.43 0.40 0.58 0.95 1.51 2.13 2.32 2.53
1.24 1.11 1.13 1.35 1.68 2.32 3.57 4.55 3.34 3.60 4.13 1.77 0.62 0.69 0.75 0.71 0.47 0.43 0.51 0.83 0.91 0.94 0.81 0.62 0.82 0.71 0.28 0.14 0.18 0.31 0.65 1.14 0.92 0.82 0.74 0.93 0.83 0.66 0.59 1.30 2.08 1.43 1.19 1.04
1.42 1.35 1.26 1.40 1.91 2.58 4.68 6.09 2.92 1.42 2.17 1.69 0.87 0.72 1.05 0.76 0.62 0.52 0.39 0.77 0.68 0.77 1.08 0.65 0.52 0.50 0.32 0.20 0.09 0.14 0.47 1.34 0.84 0.75 0.83 0.65 0.83 1.23 1.25 1.03 0.94 1.10 1.02 0.63
1.62 1.50 1.46 1.43 1.89 3.48 6.46 5.96 1.74 0.91 0.58 0.37 0.83 1.47 1.44 0.73 0.50 0.80 0.66 0.60 0.34 0.47 0.81 0.78 0.66 0.65 0.75 0.67 0.37 0.37 0.36 0.98 1.00 0.80 0.67 0.53 0.78 1.03 0.70 0.67 1.00 0.90 0.55 0.74
1.77 1.93 1.78 1.69 1.94 4.14 7.74 4.60 1.25 1.51 1.06 0.53 0.93 0.94 0.74 0.62 0.63 0.69 0.56 0.66 0.90 0.77 0.54 0.54 0.57 0.56 0.69 0.75 0.80 0.80 0.63 0.71 0.81 0.67 0.27 0.33 0.98 0.89 0.50 0.30 0.28 0.27 0.20 0.41
1.91 1.91 2.05 2.12 2.23 3.15 4.30 3.01 1.25 2.00 1.88 1.02 0.62 0.39 0.45 0.52 0.68 0.90 0.53 0.53 0.68 0.49 0.41 0.52 0.63 0.57 0.42 0.43 0.39 0.72 1.04 0.74 0.97 0.77 0.60 1.31 0.78 0.28 0.15 0.04 0.07 0.07 0.06 0.15
2.07 1.84 1.88 2.33 2.35 2.28 2.57 2.13 1.77 2.10 1.65 0.56 0.51 0.55 0.47 0.38 0.50 0.73 0.56 0.50 0.55 0.59 0.72 1.16 1.03 0.82 0.69 0.31 0.29 0.31 0.50 0.91 1.23 1.05 0.65 0.58 0.27 0.09 0.05 0.13 0.13 0.08 0.09 0.13
2.36 2.04 1.87 2.12 2.42 2.37 2.60 2.05 2.16 2.63 2.32 0.90 0.33 0.63 0.70 0.70 0.67 0.74 0.55 0.45 0.33 0.58 0.94 1.29 1.14 0.74 0.57 0.38 0.31 0.26 0.50 0.80 1.63 1.48 0.96 0.53 0.20 0.06 0.06 0.14 0.31 0.14 0.09 0.09
2.18 2.44 2.07 1.76 2.17 2.66 2.89 2.35 1.96 3.54 3.34 0.81 0.41 0.50 0.51 0.59 0.61 0.81 0.58 0.60 0.57 0.67 1.12 1.25 0.77 0.48 0.27 0.49 0.42 0.44 0.63 1.11 1.62 1.64 1.61 0.61 0.09 0.11 0.12 0.40 0.58 0.17 0.12 0.07
1.57 1.91 2.37 2.19 2.04 2.71 3.54 2.63 1.65 2.59 3.07 1.08 0.54 0.44 0.47 0.30 0.43 0.72 0.74 1.03 1.20 1.37 1.46 1.17 0.84 0.61 0.39 0.43 0.36 0.39 0.55 0.83 0.85 1.22 1.55 0.84 0.26 0.42 0.56 0.54 0.24 0.12 0.13 0.10
1.47 1.39 1.68 2.39 2.52 2.76 3.72 3.39 1.79 2.12 2.96 1.83 0.80 0.41 0.35 0.30 0.27 0.53 0.73 0.90 0.71 0.93 1.25 0.99 0.80 0.67 0.50 0.40 0.71 0.40 0.78 0.57 0.70 0.70 0.87 0.86 0.60 0.54 0.40 0.21 0.24 0.24 0.17 0.13
1.39 1.37 1.54 2.13 2.67 3.03 3.68 3.25 2.08 3.60 3.91 2.01 1.05 0.84 0.35 0.26 0.18 0.35 0.77 0.51 0.57 0.87 1.01 1.13 0.88 0.70 0.43 0.45 0.46 0.56 0.78 0.83 1.13 1.15 0.88 0.69 0.81 0.62 0.33 0.30 0.34 0.28 0.18 0.19
1.44 1.43 1.72 2.26 2.81 2.95 3.66 3.27 2.30 3.31 3.07 2.43 1.22 0.64 0.54 0.34 0.20 0.17 0.28 0.35 0.39 0.65 1.00 1.34 1.22 0.66 0.36 0.44 0.43 0.46 0.55 0.75 0.85 1.34 0.98 0.81 0.90 1.20 0.65 0.36 0.27 0.15 0.07 0.05
1.55 1.54 2.03 2.66 3.01 3.13 3.71 3.24 2.38 2.23 2.56 2.46 1.32 0.56 0.46 0.57 0.45 0.29 0.29 0.39 0.60 0.97 1.50 1.27 0.62 0.37 0.48 0.41 0.62 0.44 0.18 0.47 1.14 1.41 1.43 1.34 1.20 1.09 1.13 0.74 0.46 0.23 0.14 0.12
1.68 1.70 2.33 2.59 2.93 4.06 5.27 7.69 4.39 2.05 2.36 2.95 1.95 1.03 0.43 0.56 0.63 0.70 0.48 0.54 0.89 1.31 1.54 1.18 0.54 0.36 0.71 0.61 0.67 0.54 0.55 0.36 0.36 0.63 0.78 1.14 1.18 0.72 0.41 0.34 0.22 0.13 0.08 0.07
1.84 1.96 2.07 2.48 3.14 3.88 3.76 3.58 2.53 1.40 2.29 3.47 2.12 1.31 0.81 0.71 1.06 1.00 0.94 0.82 1.38 1.49 1.69 1.26 0.65 0.46 0.96 0.94 0.55 0.33 0.25 0.16 0.10 0.13 0.24 0.29 0.21 0.17 0.04 0.02 0.02 0.02 0.02 0.02
2.04 2.36 2.50 3.09 3.65 4.14 2.63 1.19 1.06 1.49 2.60 2.39 2.20 1.48 1.51 0.93 1.59 1.41 1.13 1.30 1.61 1.63 1.33 0.93 0.62 0.70 1.29 1.27 0.30 0.06 0.02 0.02 0.04 0.06 0.06 0.05 0.04 0.02 0.02 0.02 0.02 0.02 0.02 0.06
2.33 2.80 3.78 5.36 5.34 4.46 2.80 1.51 1.80 1.90 2.81 2.52 1.31 1.10 1.86 1.37 1.80 2.02 1.60 1.51 1.72 1.23 1.18 0.76 0.82 0.95 1.39 0.84 0.27 0.10 0.03 0.02 0.03 0.02 0.04 0.08 0.10 0.11 0.11 0.11 0.11 0.16 0.28 0.32
2.65 4.15 5.25 6.10 4.02 2.56 2.82 4.49 5.21 4.14 2.08 1.24 0.82 0.70 1.41 1.74 1.86 2.15 2.27 1.79 1.26 1.13 0.78 0.85 1.29 0.99 0.47 0.15 0.07 0.13 0.16 0.16 0.11 0.07 0.09 0.12 0.14 0.15 0.21 0.28 0.36 0.46 0.44 0.35
4.56 5.12 4.23 3.86 3.06 2.66 3.64 4.24 3.65 2.49 1.43 0.45 0.34 0.37 0.71 1.35 2.11 1.69 1.60 2.06 1.87 1.17 0.81 0.90 1.16 0.84 0.55 0.22 0.16 0.10 0.08 0.11 0.13 0.16 0.15 0.16 0.20 0.30 0.44 0.44 0.34 0.28 0.30 0.36
2.95 2.69 3.28 3.63 3.66 3.18 2.54 2.38 1.60 0.99 0.54 0.30 0.30 0.35 0.54 1.18 2.29 2.32 1.56 1.55 1.57 1.56 1.46 1.48 0.98 0.62 0.44 0.49 0.49 0.34 0.23 0.18 0.17 0.20 0.27 0.33 0.41 0.42 0.30 0.24 0.28 0.33 0.38 0.46
2.55 2.88 3.20 2.97 2.94 2.66 1.85 1.22 0.69 0.69 0.62 0.48 0.39 0.65 0.99 0.99 1.91 2.41 1.80 1.62 1.59 1.35 1.60 1.58 1.15 0.79 0.49 0.45 0.39 0.32 0.28 0.29 0.34 0.41 0.47 0.33 0.27 0.29 0.33 0.44 0.58 0.59 0.66 0.83
2.67 2.80 2.59 2.14 1.74 1.17 0.96 0.60 0.47 0.53 0.63 0.57 0.51 0.74 1.03 1.23 1.94 2.62 2.16 1.73 1.01 1.27 1.24 1.16 1.10 0.92 1.08 0.72 0.62 0.55 0.61 0.62 0.61 0.66 0.69 0.81 0.73 0.75 0.80 0.79 0.84 0.67 0.76 0.95
1.59 1.28 1.30 1.03 1.09 0.93 0.80 0.68 0.67 0.73 1.04 1.07 1.31 1.37 1.32 1.54 1.91 1.55 1.26 0.96 0.91 0.90 0.92 1.50 1.08 0.93 0.85 0.71 0.59 0.56 0.61 0.66 0.68 0.77 0.80 0.89 0.83 0.64 0.75 0.81 0.73 0.56 0.58 0.60
0.73 0.94 1.31 1.07 0.96 1.03 0.97 0.87 0.91 1.08 1.38 1.49 1.53 1.61 1.59 1.65 1.21 0.95 0.86 0.72 1.05 1.17 0.81 0.90 0.82 0.78 0.80 0.86 0.84 0.83 0.85 0.76 0.69 0.65 0.60 0.58 0.55 0.47 0.52 0.54 0.49 0.50 0.40 0.41
0.71 1.13 1.36 1.28 1.05 1.10 1.16 1.04 0.99 0.97 1.10 1.27 0.91 1.13 1.15 1.11 0.93 1.05 0.78 1.28 1.66 1.10 0.94 0.86 0.84 0.87 0.87 0.85 0.84 0.86 0.76 0.62 0.56 0.54 0.50 0.47 0.45 0.33 0.23 0.31 0.45 0.35 0.35 0.34